Location: Babice
(50.3480°N, 22.9363°E)
Time: 12:42:04
(UTC+00:00)

IRAS Rocket - Pass Details

Date: 14 July 2020
Orbit: 848 x 877 km, 100.1° (Epoch: 07 August)

Event Time Altitude Azimuth Distance (km) Brightness Sun altitude
Exits shadow 00:11:56 21° 187° (S) 1,823 5.4 -14.8°
Maximum altitude 00:15:31 55° 257° (WSW) 1,023 4.4 -14.6°
Drops below altitude 10° 00:20:56 10° 335° (NNW) 2,493 7.2 -14.2°
Sets 00:23:23 0° 340° (NNW) 3,437 8.1 -14.1°
